sat.trackr.live / text

‹ back to catalog

STARLINK-30832

NORAD 58354 · 2023-177D

PAYLOAD ACTIVE UNKNOWN

§ Identity

Operator
Country
US
Launch date
2023-11-18
Launch site
AFETR
Launch vehicle
Mass (kg)
RCS (m²)

Purposes: comms

External: N2YO · Heavens-Above · Gunter

§ Orbital elements

Epoch: 2026-09-20T16:28:57.859392Z

Period
94.27 min
Inclination
43.0013°
Eccentricity
0.0000676
Mean motion
15.27577817 rev/d
Perigee alt
482.6 km
Apogee alt
483.5 km
Semi-major
6,861.2 km
B*
1.8189e-5
RAAN
329.8776°
Arg perigee
280.5934°
Mean anomaly
79.4842°
Rev number
15,799

§ Raw data

STARLINK-308321 58354U 23177D   26263.68678078  .00000239  00000+0  18189-4 0  99982 58354  43.0013 329.8776 0000676 280.5934  79.4842 15.27577817157995

JSON: /api/v1/satellites/58354 · /tle

For live sub-satellite position, see the globe view (requires WebGL).

§ Visibility from observer

Set your observer location to see the next 7 days of passes ≥ 10°. The values pass through the URL so the page stays shareable.

No JS? Fill the form by hand. The geolocation button needs JavaScript.